owner,sensor,date,latitude,longitude,vertical_datum,sea_water_practical_salinity,qcFlag 
SCCF RECON,ioos:station:SCCF:13:1,2011-03-01T00:00:00Z,26.5255,-82.0032,2.5,32.9,1111122 
SCCF RECON,ioos:station:SCCF:13:1,2011-03-01T01:00:00Z,26.5255,-82.0032,2.55,32.85,1111122 
SCCF RECON,ioos:station:SCCF:13:1,2011-03-01T02:00:00Z,26.5255,-82.0032,2.57,32.79,1111122 
SCCF RECON,ioos:station:SCCF:13:1,2011-03-01T03:00:00Z,26.5255,-82.0032,2.576,33.08,1111122 
SCCF RECON,ioos:station:SCCF:13:1,2011-03-01T04:00:00Z,26.5255,-82.0032,2.545,33.1,1111122 
SCCF RECON,ioos:station:SCCF:13:1,2011-03-01T05:00:00Z,26.5255,-82.0032,2.49,33.13,1111122 
SCCF RECON,ioos:station:SCCF:13:1,2011-03-01T06:00:00Z,26.5255,-82.0032,2.42,33.05,1111122 
SCCF RECON,ioos:station:SCCF:13:1,2011-03-01T07:00:00Z,26.5255,-82.0032,2.34,32.34,1111122 
SCCF RECON,ioos:station:SCCF:13:1,2011-03-01T08:00:00Z,26.5255,-82.0032,2.251,31.68,1111122 
SCCF RECON,ioos:station:SCCF:13:1,2011-03-01T09:00:00Z,26.5255,-82.0032,2.16,31.23,1111122 
SCCF RECON,ioos:station:SCCF:13:1,2011-03-01T10:00:00Z,26.5255,-82.0032,2.078,29.95,1111122 
SCCF RECON,ioos:station:SCCF:13:1,2011-03-01T11:00:00Z,26.5255,-82.0032,2.02,28.84,1111122 
SCCF RECON,ioos:station:SCCF:13:1,2011-03-01T12:00:00Z,26.5255,-82.0032,2.01,28.25,1111122 
SCCF RECON,ioos:station:SCCF:13:1,2011-03-01T13:00:00Z,26.5255,-82.0032,2.08,27.82,1111122 
SCCF RECON,ioos:station:SCCF:13:1,2011-03-01T14:00:00Z,26.5255,-82.0032,2.17,27.63,1111122 
SCCF RECON,ioos:station:SCCF:13:1,2011-03-01T15:00:00Z,26.5255,-82.0032,2.25,28.0,1111122 
SCCF RECON,ioos:station:SCCF:13:1,2011-03-01T16:00:00Z,26.5255,-82.0032,2.31,29.53,1111122 
SCCF RECON,ioos:station:SCCF:13:1,2011-03-01T17:00:00Z,26.5255,-82.0032,2.35,29.82,1111122 
SCCF RECON,ioos:station:SCCF:13:1,2011-03-01T18:00:00Z,26.5255,-82.0032,2.36,31.12,1111122 
SCCF RECON,ioos:station:SCCF:13:1,2011-03-01T19:00:00Z,26.5255,-82.0032,2.34,32.18,1111122 
SCCF RECON,ioos:station:SCCF:13:1,2011-03-01T20:00:00Z,26.5255,-82.0032,2.33,32.6,1111122 
SCCF RECON,ioos:station:SCCF:13:1,2011-03-01T21:00:00Z,26.5255,-82.0032,2.305,32.68,1111122 
SCCF RECON,ioos:station:SCCF:13:1,2011-03-01T22:00:00Z,26.5255,-82.0032,2.27,32.59,1111122 
SCCF RECON,ioos:station:SCCF:13:1,2011-03-01T23:00:00Z,26.5255,-82.0032,2.26,31.8,1111122 
SCCF RECON,ioos:station:SCCF:13:1,2011-03-02T00:00:00Z,26.5255,-82.0032,2.34,31.23,1111122 
SCCF RECON,ioos:station:SCCF:13:1,2011-03-02T01:00:00Z,26.5255,-82.0032,2.45,31.7,1111122 
SCCF RECON,ioos:station:SCCF:13:1,2011-03-02T02:00:00Z,26.5255,-82.0032,2.53,31.75,1111122 
SCCF RECON,ioos:station:SCCF:13:1,2011-03-02T03:00:00Z,26.5255,-82.0032,2.57,32.08,1111122 
SCCF RECON,ioos:station:SCCF:13:1,2011-03-02T04:00:00Z,26.5255,-82.0032,2.59,32.62,1111122 
SCCF RECON,ioos:station:SCCF:13:1,2011-03-02T05:00:00Z,26.5255,-82.0032,2.572,32.87,1111122 
SCCF RECON,ioos:station:SCCF:13:1,2011-03-02T06:00:00Z,26.5255,-82.0032,2.495,32.99,1111122 
SCCF RECON,ioos:station:SCCF:13:1,2011-03-02T07:00:00Z,26.5255,-82.0032,2.41,32.89,1111122 
SCCF RECON,ioos:station:SCCF:13:1,2011-03-02T08:00:00Z,26.5255,-82.0032,2.326,31.97,1111122 
SCCF RECON,ioos:station:SCCF:13:1,2011-03-02T09:00:00Z,26.5255,-82.0032,2.234,30.84,1111122 
SCCF RECON,ioos:station:SCCF:13:1,2011-03-02T10:00:00Z,26.5255,-82.0032,2.16,30.14,1111122 
SCCF RECON,ioos:station:SCCF:13:1,2011-03-02T11:00:00Z,26.5255,-82.0032,2.082,29.58,1111122 
SCCF RECON,ioos:station:SCCF:13:1,2011-03-02T12:00:00Z,26.5255,-82.0032,2.039,28.47,1111122 
SCCF RECON,ioos:station:SCCF:13:1,2011-03-02T13:00:00Z,26.5255,-82.0032,2.04,27.53,1111122 
SCCF RECON,ioos:station:SCCF:13:1,2011-03-02T14:00:00Z,26.5255,-82.0032,2.12,26.95,1111122 
SCCF RECON,ioos:station:SCCF:13:1,2011-03-02T15:00:00Z,26.5255,-82.0032,2.221,26.79,1111122 
SCCF RECON,ioos:station:SCCF:13:1,2011-03-02T16:00:00Z,26.5255,-82.0032,2.29,27.25,1111122 
SCCF RECON,ioos:station:SCCF:13:1,2011-03-02T17:00:00Z,26.5255,-82.0032,2.32,29.11,1111122 
SCCF RECON,ioos:station:SCCF:13:1,2011-03-02T18:00:00Z,26.5255,-82.0032,2.31,29.67,1111122 
SCCF RECON,ioos:station:SCCF:13:1,2011-03-02T19:00:00Z,26.5255,-82.0032,2.28,30.45,1111122 
SCCF RECON,ioos:station:SCCF:13:1,2011-03-02T20:00:00Z,26.5255,-82.0032,2.226,31.38,1111122 
SCCF RECON,ioos:station:SCCF:13:1,2011-03-02T21:00:00Z,26.5255,-82.0032,2.18,31.02,1111122 
SCCF RECON,ioos:station:SCCF:13:1,2011-03-02T22:00:00Z,26.5255,-82.0032,2.122,28.84,1111122 
SCCF RECON,ioos:station:SCCF:13:1,2011-03-02T23:00:00Z,26.5255,-82.0032,2.105,27.97,1111122 
SCCF RECON,ioos:station:SCCF:13:1,2011-03-03T00:00:00Z,26.5255,-82.0032,2.095,27.01,1111122 
SCCF RECON,ioos:station:SCCF:13:1,2011-03-03T01:00:00Z,26.5255,-82.0032,2.153,26.41,1111122 
SCCF RECON,ioos:station:SCCF:13:1,2011-03-03T02:00:00Z,26.5255,-82.0032,2.261,26.66,1111122 
SCCF RECON,ioos:station:SCCF:13:1,2011-03-03T03:00:00Z,26.5255,-82.0032,2.345,29.71,1111122 
SCCF RECON,ioos:station:SCCF:13:1,2011-03-03T04:00:00Z,26.5255,-82.0032,2.4,31.02,1111122 
SCCF RECON,ioos:station:SCCF:13:1,2011-03-03T05:00:00Z,26.5255,-82.0032,2.426,32.03,1111122 
SCCF RECON,ioos:station:SCCF:13:1,2011-03-03T06:00:00Z,26.5255,-82.0032,2.421,32.72,1111122 
SCCF RECON,ioos:station:SCCF:13:1,2011-03-03T07:00:00Z,26.5255,-82.0032,2.35,32.97,1111122 
SCCF RECON,ioos:station:SCCF:13:1,2011-03-03T08:00:00Z,26.5255,-82.0032,2.24,32.73,1111122 
SCCF RECON,ioos:station:SCCF:13:1,2011-03-03T09:00:00Z,26.5255,-82.0032,2.18,31.63,1111122 
SCCF RECON,ioos:station:SCCF:13:1,2011-03-03T10:00:00Z,26.5255,-82.0032,2.131,30.29,1111122 
SCCF RECON,ioos:station:SCCF:13:1,2011-03-03T11:00:00Z,26.5255,-82.0032,2.082,28.26,1111122 
SCCF RECON,ioos:station:SCCF:13:1,2011-03-03T12:00:00Z,26.5255,-82.0032,2.059,27.85,1111122 
SCCF RECON,ioos:station:SCCF:13:1,2011-03-03T13:00:00Z,26.5255,-82.0032,2.1,27.53,1111122 
SCCF RECON,ioos:station:SCCF:13:1,2011-03-03T14:00:00Z,26.5255,-82.0032,2.226,27.04,1111122 
SCCF RECON,ioos:station:SCCF:13:1,2011-03-03T15:00:00Z,26.5255,-82.0032,2.317,28.5,1111122 
SCCF RECON,ioos:station:SCCF:13:1,2011-03-03T16:00:00Z,26.5255,-82.0032,2.385,30.07,1111122 
SCCF RECON,ioos:station:SCCF:13:1,2011-03-03T17:00:00Z,26.5255,-82.0032,2.421,31.03,1111122 
SCCF RECON,ioos:station:SCCF:13:1,2011-03-03T18:00:00Z,26.5255,-82.0032,2.438,32.58,1111122 
SCCF RECON,ioos:station:SCCF:13:1,2011-03-03T19:00:00Z,26.5255,-82.0032,2.439,33.15,1111122 
SCCF RECON,ioos:station:SCCF:13:1,2011-03-03T20:00:00Z,26.5255,-82.0032,2.409,33.24,1111122 
SCCF RECON,ioos:station:SCCF:13:1,2011-03-03T21:00:00Z,26.5255,-82.0032,2.352,33.17,1111122 
SCCF RECON,ioos:station:SCCF:13:1,2011-03-03T22:00:00Z,26.5255,-82.0032,2.29,33.18,1111122 
SCCF RECON,ioos:station:SCCF:13:1,2011-03-03T23:00:00Z,26.5255,-82.0032,2.224,31.59,1111122 
SCCF RECON,ioos:station:SCCF:13:1,2011-03-04T00:00:00Z,26.5255,-82.0032,2.18,29.49,1111122 
SCCF RECON,ioos:station:SCCF:13:1,2011-03-04T01:00:00Z,26.5255,-82.0032,2.24,28.5,1111122 
SCCF RECON,ioos:station:SCCF:13:1,2011-03-04T02:00:00Z,26.5255,-82.0032,2.36,28.77,1111122 
SCCF RECON,ioos:station:SCCF:13:1,2011-03-04T03:00:00Z,26.5255,-82.0032,2.441,32.23,1111122 
SCCF RECON,ioos:station:SCCF:13:1,2011-03-04T04:00:00Z,26.5255,-82.0032,2.49,32.76,1111122 
SCCF RECON,ioos:station:SCCF:13:1,2011-03-04T05:00:00Z,26.5255,-82.0032,2.52,33.27,1111122 
SCCF RECON,ioos:station:SCCF:13:1,2011-03-04T06:00:00Z,26.5255,-82.0032,2.5,33.46,1111122 
SCCF RECON,ioos:station:SCCF:13:1,2011-03-04T07:00:00Z,26.5255,-82.0032,2.439,33.49,1111122 
SCCF RECON,ioos:station:SCCF:13:1,2011-03-04T08:00:00Z,26.5255,-82.0032,2.35,33.47,1111122 
SCCF RECON,ioos:station:SCCF:13:1,2011-03-04T09:00:00Z,26.5255,-82.0032,2.28,33.19,1111122 
SCCF RECON,ioos:station:SCCF:13:1,2011-03-04T10:00:00Z,26.5255,-82.0032,2.21,31.59,1111122 
SCCF RECON,ioos:station:SCCF:13:1,2011-03-04T11:00:00Z,26.5255,-82.0032,2.14,30.13,1111122 
SCCF RECON,ioos:station:SCCF:13:1,2011-03-04T12:00:00Z,26.5255,-82.0032,2.091,29.7,1111122 
SCCF RECON,ioos:station:SCCF:13:1,2011-03-04T13:00:00Z,26.5255,-82.0032,2.077,28.83,1111122 
SCCF RECON,ioos:station:SCCF:13:1,2011-03-04T14:00:00Z,26.5255,-82.0032,2.15,28.14,1111122 
SCCF RECON,ioos:station:SCCF:13:1,2011-03-04T15:00:00Z,26.5255,-82.0032,2.28,27.95,1111122 
SCCF RECON,ioos:station:SCCF:13:1,2011-03-04T16:00:00Z,26.5255,-82.0032,2.36,29.76,1111122 
SCCF RECON,ioos:station:SCCF:13:1,2011-03-04T17:00:00Z,26.5255,-82.0032,2.421,31.04,1111122 
SCCF RECON,ioos:station:SCCF:13:1,2011-03-04T18:00:00Z,26.5255,-82.0032,2.478,32.6,1111122 
SCCF RECON,ioos:station:SCCF:13:1,2011-03-04T19:00:00Z,26.5255,-82.0032,2.49,33.36,1111122 
SCCF RECON,ioos:station:SCCF:13:1,2011-03-04T20:00:00Z,26.5255,-82.0032,2.451,33.49,1111122 
SCCF RECON,ioos:station:SCCF:13:1,2011-03-04T21:00:00Z,26.5255,-82.0032,2.39,33.49,1111122 
SCCF RECON,ioos:station:SCCF:13:1,2011-03-04T22:00:00Z,26.5255,-82.0032,2.323,33.24,1111122 
SCCF RECON,ioos:station:SCCF:13:1,2011-03-04T23:00:00Z,26.5255,-82.0032,2.289,33.39,1111122 
SCCF RECON,ioos:station:SCCF:13:1,2011-03-05T00:00:00Z,26.5255,-82.0032,2.255,31.57,1111122 
SCCF RECON,ioos:station:SCCF:13:1,2011-03-05T01:00:00Z,26.5255,-82.0032,2.26,29.71,1111122 
SCCF RECON,ioos:station:SCCF:13:1,2011-03-05T02:00:00Z,26.5255,-82.0032,2.35,29.49,1111122 
SCCF RECON,ioos:station:SCCF:13:1,2011-03-05T03:00:00Z,26.5255,-82.0032,2.446,31.74,1111122 
SCCF RECON,ioos:station:SCCF:13:1,2011-03-05T04:00:00Z,26.5255,-82.0032,2.529,32.88,1111122 
SCCF RECON,ioos:station:SCCF:13:1,2011-03-05T05:00:00Z,26.5255,-82.0032,2.59,33.29,1111122 
SCCF RECON,ioos:station:SCCF:13:1,2011-03-05T06:00:00Z,26.5255,-82.0032,2.62,33.65,1111122 
SCCF RECON,ioos:station:SCCF:13:1,2011-03-05T07:00:00Z,26.5255,-82.0032,2.61,33.71,1111122 
SCCF RECON,ioos:station:SCCF:13:1,2011-03-05T08:00:00Z,26.5255,-82.0032,2.53,33.72,1111122 
SCCF RECON,ioos:station:SCCF:13:1,2011-03-05T09:00:00Z,26.5255,-82.0032,2.44,33.75,1111122 
SCCF RECON,ioos:station:SCCF:13:1,2011-03-05T10:00:00Z,26.5255,-82.0032,2.37,33.61,1111122 
SCCF RECON,ioos:station:SCCF:13:1,2011-03-05T11:00:00Z,26.5255,-82.0032,2.31,32.79,1111122 
SCCF RECON,ioos:station:SCCF:13:1,2011-03-05T12:00:00Z,26.5255,-82.0032,2.23,31.16,1111122 
SCCF RECON,ioos:station:SCCF:13:1,2011-03-05T13:00:00Z,26.5255,-82.0032,2.19,30.65,1111122 
SCCF RECON,ioos:station:SCCF:13:1,2011-03-05T14:00:00Z,26.5255,-82.0032,2.215,29.53,1111122 
SCCF RECON,ioos:station:SCCF:13:1,2011-03-05T15:00:00Z,26.5255,-82.0032,2.337,29.33,1111122 
SCCF RECON,ioos:station:SCCF:13:1,2011-03-05T16:00:00Z,26.5255,-82.0032,2.445,30.38,1111122 
SCCF RECON,ioos:station:SCCF:13:1,2011-03-05T17:00:00Z,26.5255,-82.0032,2.512,31.11,1111122 
SCCF RECON,ioos:station:SCCF:13:1,2011-03-05T18:00:00Z,26.5255,-82.0032,2.561,32.8,1111122 
SCCF RECON,ioos:station:SCCF:13:1,2011-03-05T19:00:00Z,26.5255,-82.0032,2.58,33.67,1111122 
SCCF RECON,ioos:station:SCCF:13:1,2011-03-05T20:00:00Z,26.5255,-82.0032,2.529,33.74,1111122 
SCCF RECON,ioos:station:SCCF:13:1,2011-03-05T21:00:00Z,26.5255,-82.0032,2.438,33.72,1111122 
SCCF RECON,ioos:station:SCCF:13:1,2011-03-05T22:00:00Z,26.5255,-82.0032,2.365,33.59,1111122 
SCCF RECON,ioos:station:SCCF:13:1,2011-03-05T23:00:00Z,26.5255,-82.0032,2.3,33.34,1111122 
SCCF RECON,ioos:station:SCCF:13:1,2011-03-06T00:00:00Z,26.5255,-82.0032,2.25,33.01,1111122 
SCCF RECON,ioos:station:SCCF:13:1,2011-03-06T01:00:00Z,26.5255,-82.0032,2.22,31.95,1111122 
SCCF RECON,ioos:station:SCCF:13:1,2011-03-06T02:00:00Z,26.5255,-82.0032,2.269,31.27,1111122 
SCCF RECON,ioos:station:SCCF:13:1,2011-03-06T03:00:00Z,26.5255,-82.0032,2.39,30.8,1111122 
SCCF RECON,ioos:station:SCCF:13:1,2011-03-06T04:00:00Z,26.5255,-82.0032,2.48,31.97,1111122 
SCCF RECON,ioos:station:SCCF:13:1,2011-03-06T05:00:00Z,26.5255,-82.0032,2.55,32.53,1111122 
SCCF RECON,ioos:station:SCCF:13:1,2011-03-06T06:00:00Z,26.5255,-82.0032,2.596,33.15,1111122 
SCCF RECON,ioos:station:SCCF:13:1,2011-03-06T07:00:00Z,26.5255,-82.0032,2.6,33.5,1111122 
SCCF RECON,ioos:station:SCCF:13:1,2011-03-06T08:00:00Z,26.5255,-82.0032,2.571,33.67,1111122 
SCCF RECON,ioos:station:SCCF:13:1,2011-03-06T09:00:00Z,26.5255,-82.0032,2.5,33.68,1111122 
SCCF RECON,ioos:station:SCCF:13:1,2011-03-06T10:00:00Z,26.5255,-82.0032,2.41,33.65,1111122 
SCCF RECON,ioos:station:SCCF:13:1,2011-03-06T11:00:00Z,26.5255,-82.0032,2.336,33.47,1111122 
SCCF RECON,ioos:station:SCCF:13:1,2011-03-06T12:00:00Z,26.5255,-82.0032,2.288,32.71,1111122 
SCCF RECON,ioos:station:SCCF:13:1,2011-03-06T13:00:00Z,26.5255,-82.0032,2.25,31.82,1111122 
SCCF RECON,ioos:station:SCCF:13:1,2011-03-06T14:00:00Z,26.5255,-82.0032,2.242,31.56,1111122 
SCCF RECON,ioos:station:SCCF:13:1,2011-03-06T15:00:00Z,26.5255,-82.0032,2.309,30.69,1111122 
SCCF RECON,ioos:station:SCCF:13:1,2011-03-06T16:00:00Z,26.5255,-82.0032,2.404,31.32,1111122 
SCCF RECON,ioos:station:SCCF:13:1,2011-03-06T17:00:00Z,26.5255,-82.0032,2.49,31.96,1111122 
SCCF RECON,ioos:station:SCCF:13:1,2011-03-06T18:00:00Z,26.5255,-82.0032,2.56,32.79,1111122 
SCCF RECON,ioos:station:SCCF:13:1,2011-03-06T19:00:00Z,26.5255,-82.0032,2.59,33.65,1111122 
SCCF RECON,ioos:station:SCCF:13:1,2011-03-06T20:00:00Z,26.5255,-82.0032,2.54,33.78,1111122 
SCCF RECON,ioos:station:SCCF:13:1,2011-03-06T21:00:00Z,26.5255,-82.0032,2.459,33.89,1111122 
SCCF RECON,ioos:station:SCCF:13:1,2011-03-06T22:00:00Z,26.5255,-82.0032,2.37,33.84,1111122 
SCCF RECON,ioos:station:SCCF:13:1,2011-03-06T23:00:00Z,26.5255,-82.0032,2.292,33.36,1111122 
SCCF RECON,ioos:station:SCCF:13:1,2011-03-07T00:00:00Z,26.5255,-82.0032,2.23,33.05,1111122 
SCCF RECON,ioos:station:SCCF:13:1,2011-03-07T01:00:00Z,26.5255,-82.0032,2.184,31.67,1111122 
SCCF RECON,ioos:station:SCCF:13:1,2011-03-07T02:00:00Z,26.5255,-82.0032,2.16,30.82,1111122 
SCCF RECON,ioos:station:SCCF:13:1,2011-03-07T03:00:00Z,26.5255,-82.0032,2.16,30.13,1111122 
SCCF RECON,ioos:station:SCCF:13:1,2011-03-07T04:00:00Z,26.5255,-82.0032,2.23,29.58,1111122 
SCCF RECON,ioos:station:SCCF:13:1,2011-03-07T05:00:00Z,26.5255,-82.0032,2.35,29.61,1111122 
SCCF RECON,ioos:station:SCCF:13:1,2011-03-07T06:00:00Z,26.5255,-82.0032,2.42,31.33,1111122 
SCCF RECON,ioos:station:SCCF:13:1,2011-03-07T07:00:00Z,26.5255,-82.0032,2.45,31.46,1111122 
SCCF RECON,ioos:station:SCCF:13:1,2011-03-07T08:00:00Z,26.5255,-82.0032,2.443,32.32,1111122 
SCCF RECON,ioos:station:SCCF:13:1,2011-03-07T09:00:00Z,26.5255,-82.0032,2.381,32.86,1111122 
SCCF RECON,ioos:station:SCCF:13:1,2011-03-07T10:00:00Z,26.5255,-82.0032,2.31,32.99,1111122 
SCCF RECON,ioos:station:SCCF:13:1,2011-03-07T11:00:00Z,26.5255,-82.0032,2.26,31.94,1111122 
SCCF RECON,ioos:station:SCCF:13:1,2011-03-07T12:00:00Z,26.5255,-82.0032,2.22,31.0,1111122 
SCCF RECON,ioos:station:SCCF:13:1,2011-03-07T13:00:00Z,26.5255,-82.0032,2.169,30.44,1111122 
SCCF RECON,ioos:station:SCCF:13:1,2011-03-07T14:00:00Z,26.5255,-82.0032,2.15,29.47,1111122 
SCCF RECON,ioos:station:SCCF:13:1,2011-03-07T15:00:00Z,26.5255,-82.0032,2.2,28.33,1111122 
SCCF RECON,ioos:station:SCCF:13:1,2011-03-07T17:00:00Z,26.5255,-82.0032,2.408,30.26,1111122 
SCCF RECON,ioos:station:SCCF:13:1,2011-03-07T18:00:00Z,26.5255,-82.0032,2.47,30.69,1111122 
SCCF RECON,ioos:station:SCCF:13:1,2011-03-07T19:00:00Z,26.5255,-82.0032,2.5,32.0,1111122 
SCCF RECON,ioos:station:SCCF:13:1,2011-03-07T20:00:00Z,26.5255,-82.0032,2.511,32.81,1111122 
SCCF RECON,ioos:station:SCCF:13:1,2011-03-07T21:00:00Z,26.5255,-82.0032,2.472,33.09,1111122 
SCCF RECON,ioos:station:SCCF:13:1,2011-03-07T22:00:00Z,26.5255,-82.0032,2.38,33.19,1111122 
SCCF RECON,ioos:station:SCCF:13:1,2011-03-07T23:00:00Z,26.5255,-82.0032,2.3,33.2,1111122 
SCCF RECON,ioos:station:SCCF:13:1,2011-03-08T00:00:00Z,26.5255,-82.0032,2.236,32.51,1111122 
SCCF RECON,ioos:station:SCCF:13:1,2011-03-08T01:00:00Z,26.5255,-82.0032,2.19,32.15,1111122 
SCCF RECON,ioos:station:SCCF:13:1,2011-03-08T02:00:00Z,26.5255,-82.0032,2.16,30.95,1111122 
SCCF RECON,ioos:station:SCCF:13:1,2011-03-08T03:00:00Z,26.5255,-82.0032,2.166,29.77,1111122 
SCCF RECON,ioos:station:SCCF:13:1,2011-03-08T04:00:00Z,26.5255,-82.0032,2.233,28.71,1111122 
SCCF RECON,ioos:station:SCCF:13:1,2011-03-08T05:00:00Z,26.5255,-82.0032,2.34,28.24,1111122 
SCCF RECON,ioos:station:SCCF:13:1,2011-03-08T06:00:00Z,26.5255,-82.0032,2.391,30.55,1111122 
SCCF RECON,ioos:station:SCCF:13:1,2011-03-08T07:00:00Z,26.5255,-82.0032,2.429,31.65,1111122 
SCCF RECON,ioos:station:SCCF:13:1,2011-03-08T08:00:00Z,26.5255,-82.0032,2.441,31.65,1111122 
SCCF RECON,ioos:station:SCCF:13:1,2011-03-08T09:00:00Z,26.5255,-82.0032,2.43,32.36,1111122 
SCCF RECON,ioos:station:SCCF:13:1,2011-03-08T10:00:00Z,26.5255,-82.0032,2.374,32.67,1111122 
SCCF RECON,ioos:station:SCCF:13:1,2011-03-08T11:00:00Z,26.5255,-82.0032,2.32,32.43,1111122 
SCCF RECON,ioos:station:SCCF:13:1,2011-03-08T12:00:00Z,26.5255,-82.0032,2.27,31.72,1111122 
SCCF RECON,ioos:station:SCCF:13:1,2011-03-08T13:00:00Z,26.5255,-82.0032,2.25,30.57,1111122 
SCCF RECON,ioos:station:SCCF:13:1,2011-03-08T14:00:00Z,26.5255,-82.0032,2.25,28.69,1111122 
SCCF RECON,ioos:station:SCCF:13:1,2011-03-08T15:00:00Z,26.5255,-82.0032,2.32,28.13,1111122 
SCCF RECON,ioos:station:SCCF:13:1,2011-03-08T16:00:00Z,26.5255,-82.0032,2.408,28.57,1111122 
SCCF RECON,ioos:station:SCCF:13:1,2011-03-08T17:00:00Z,26.5255,-82.0032,2.473,31.71,1111122 
SCCF RECON,ioos:station:SCCF:13:1,2011-03-08T18:00:00Z,26.5255,-82.0032,2.52,32.07,1111122 
SCCF RECON,ioos:station:SCCF:13:1,2011-03-08T19:00:00Z,26.5255,-82.0032,2.56,33.03,1111122 
SCCF RECON,ioos:station:SCCF:13:1,2011-03-08T20:00:00Z,26.5255,-82.0032,2.58,33.29,1111122 
SCCF RECON,ioos:station:SCCF:13:1,2011-03-08T21:00:00Z,26.5255,-82.0032,2.566,33.36,1111122 
SCCF RECON,ioos:station:SCCF:13:1,2011-03-08T22:00:00Z,26.5255,-82.0032,2.487,33.4,1111122 
SCCF RECON,ioos:station:SCCF:13:1,2011-03-08T23:00:00Z,26.5255,-82.0032,2.41,33.32,1111122 
SCCF RECON,ioos:station:SCCF:13:1,2011-03-09T00:00:00Z,26.5255,-82.0032,2.33,33.02,1111122 
SCCF RECON,ioos:station:SCCF:13:1,2011-03-09T01:00:00Z,26.5255,-82.0032,2.25,32.09,1111122 
SCCF RECON,ioos:station:SCCF:13:1,2011-03-09T02:00:00Z,26.5255,-82.0032,2.18,31.39,1111122 
SCCF RECON,ioos:station:SCCF:13:1,2011-03-09T03:00:00Z,26.5255,-82.0032,2.13,29.95,1111122 
SCCF RECON,ioos:station:SCCF:13:1,2011-03-09T04:00:00Z,26.5255,-82.0032,2.13,28.98,1111122 
SCCF RECON,ioos:station:SCCF:13:1,2011-03-09T05:00:00Z,26.5255,-82.0032,2.24,28.46,1111122 
SCCF RECON,ioos:station:SCCF:13:1,2011-03-09T06:00:00Z,26.5255,-82.0032,2.35,28.8,1111122 
SCCF RECON,ioos:station:SCCF:13:1,2011-03-09T07:00:00Z,26.5255,-82.0032,2.399,30.66,1111122 
SCCF RECON,ioos:station:SCCF:13:1,2011-03-09T08:00:00Z,26.5255,-82.0032,2.415,31.06,1111122 
SCCF RECON,ioos:station:SCCF:13:1,2011-03-09T09:00:00Z,26.5255,-82.0032,2.428,32.02,1111122 
SCCF RECON,ioos:station:SCCF:13:1,2011-03-09T10:00:00Z,26.5255,-82.0032,2.42,32.91,1111122 
SCCF RECON,ioos:station:SCCF:13:1,2011-03-09T11:00:00Z,26.5255,-82.0032,2.38,33.05,1111122 
SCCF RECON,ioos:station:SCCF:13:1,2011-03-09T12:00:00Z,26.5255,-82.0032,2.37,33.03,1111122 
SCCF RECON,ioos:station:SCCF:13:1,2011-03-09T13:00:00Z,26.5255,-82.0032,2.373,33.0,1111122 
SCCF RECON,ioos:station:SCCF:13:1,2011-03-09T14:00:00Z,26.5255,-82.0032,2.361,32.94,1111122 
SCCF RECON,ioos:station:SCCF:13:1,2011-03-09T15:00:00Z,26.5255,-82.0032,2.382,31.11,1111122 
SCCF RECON,ioos:station:SCCF:13:1,2011-03-09T16:00:00Z,26.5255,-82.0032,2.436,31.96,1111122 
SCCF RECON,ioos:station:SCCF:13:1,2011-03-09T17:00:00Z,26.5255,-82.0032,2.49,33.06,1111122 
SCCF RECON,ioos:station:SCCF:13:1,2011-03-09T18:00:00Z,26.5255,-82.0032,2.561,33.28,1111122 
SCCF RECON,ioos:station:SCCF:13:1,2011-03-09T19:00:00Z,26.5255,-82.0032,2.627,33.63,1111122 
SCCF RECON,ioos:station:SCCF:13:1,2011-03-09T20:00:00Z,26.5255,-82.0032,2.688,33.7,1111122 
SCCF RECON,ioos:station:SCCF:13:1,2011-03-09T21:00:00Z,26.5255,-82.0032,2.71,33.76,1111122 
SCCF RECON,ioos:station:SCCF:13:1,2011-03-09T22:00:00Z,26.5255,-82.0032,2.68,33.74,1111122 
SCCF RECON,ioos:station:SCCF:13:1,2011-03-09T23:00:00Z,26.5255,-82.0032,2.598,33.72,1111122 
SCCF RECON,ioos:station:SCCF:13:1,2011-03-10T00:00:00Z,26.5255,-82.0032,2.51,33.72,1111122 
SCCF RECON,ioos:station:SCCF:13:1,2011-03-10T01:00:00Z,26.5255,-82.0032,2.415,33.72,1111122 
SCCF RECON,ioos:station:SCCF:13:1,2011-03-10T02:00:00Z,26.5255,-82.0032,2.348,33.72,1111122 
SCCF RECON,ioos:station:SCCF:13:1,2011-03-10T03:00:00Z,26.5255,-82.0032,2.29,32.89,1111122 
SCCF RECON,ioos:station:SCCF:13:1,2011-03-10T04:00:00Z,26.5255,-82.0032,2.27,32.39,1111122 
SCCF RECON,ioos:station:SCCF:13:1,2011-03-10T05:00:00Z,26.5255,-82.0032,2.3,31.69,1111122 
SCCF RECON,ioos:station:SCCF:13:1,2011-03-10T06:00:00Z,26.5255,-82.0032,2.38,31.05,1111122 
SCCF RECON,ioos:station:SCCF:13:1,2011-03-10T07:00:00Z,26.5255,-82.0032,2.43,30.96,1111122 
SCCF RECON,ioos:station:SCCF:13:1,2011-03-10T08:00:00Z,26.5255,-82.0032,2.46,32.04,1111122 
SCCF RECON,ioos:station:SCCF:13:1,2011-03-10T09:00:00Z,26.5255,-82.0032,2.487,32.87,1111122 
SCCF RECON,ioos:station:SCCF:13:1,2011-03-10T10:00:00Z,26.5255,-82.0032,2.46,32.87,1111122 
SCCF RECON,ioos:station:SCCF:13:1,2011-03-10T11:00:00Z,26.5255,-82.0032,2.425,32.86,1111122 
SCCF RECON,ioos:station:SCCF:13:1,2011-03-10T12:00:00Z,26.5255,-82.0032,2.448,32.6,1111122 
SCCF RECON,ioos:station:SCCF:13:1,2011-03-10T13:00:00Z,26.5255,-82.0032,2.42,32.74,1111122 
SCCF RECON,ioos:station:SCCF:13:1,2011-03-10T14:00:00Z,26.5255,-82.0032,2.377,32.7,1111122 
SCCF RECON,ioos:station:SCCF:13:1,2011-03-10T15:00:00Z,26.5255,-82.0032,2.38,30.89,1111122 
SCCF RECON,ioos:station:SCCF:13:1,2011-03-10T16:00:00Z,26.5255,-82.0032,2.38,30.05,1111122 
SCCF RECON,ioos:station:SCCF:13:1,2011-03-10T17:00:00Z,26.5255,-82.0032,2.323,29.72,1111122 
SCCF RECON,ioos:station:SCCF:13:1,2011-03-10T18:00:00Z,26.5255,-82.0032,2.43,29.2,1111122 
SCCF RECON,ioos:station:SCCF:13:1,2011-03-10T19:00:00Z,26.5255,-82.0032,2.52,31.22,1111122 
SCCF RECON,ioos:station:SCCF:13:1,2011-03-10T20:00:00Z,26.5255,-82.0032,2.59,32.51,1111122 
SCCF RECON,ioos:station:SCCF:13:1,2011-03-10T21:00:00Z,26.5255,-82.0032,2.61,33.45,1111122 
SCCF RECON,ioos:station:SCCF:13:1,2011-03-10T22:00:00Z,26.5255,-82.0032,2.58,33.65,1111122 
SCCF RECON,ioos:station:SCCF:13:1,2011-03-10T23:00:00Z,26.5255,-82.0032,2.53,33.71,1111122 
SCCF RECON,ioos:station:SCCF:13:1,2011-03-11T00:00:00Z,26.5255,-82.0032,2.46,33.74,1111122 
SCCF RECON,ioos:station:SCCF:13:1,2011-03-11T01:00:00Z,26.5255,-82.0032,2.38,33.18,1111122 
SCCF RECON,ioos:station:SCCF:13:1,2011-03-11T02:00:00Z,26.5255,-82.0032,2.33,33.01,1111122 
SCCF RECON,ioos:station:SCCF:13:1,2011-03-11T03:00:00Z,26.5255,-82.0032,2.257,31.89,1111122 
SCCF RECON,ioos:station:SCCF:13:1,2011-03-11T04:00:00Z,26.5255,-82.0032,2.188,30.24,1111122 
SCCF RECON,ioos:station:SCCF:13:1,2011-03-11T05:00:00Z,26.5255,-82.0032,2.13,29.34,1111122 
SCCF RECON,ioos:station:SCCF:13:1,2011-03-11T06:00:00Z,26.5255,-82.0032,2.1,28.45,1111122 
SCCF RECON,ioos:station:SCCF:13:1,2011-03-11T07:00:00Z,26.5255,-82.0032,2.104,27.91,1111122 
SCCF RECON,ioos:station:SCCF:13:1,2011-03-11T08:00:00Z,26.5255,-82.0032,2.2,27.66,1111122 
SCCF RECON,ioos:station:SCCF:13:1,2011-03-11T09:00:00Z,26.5255,-82.0032,2.26,27.52,1111122 
SCCF RECON,ioos:station:SCCF:13:1,2011-03-11T10:00:00Z,26.5255,-82.0032,2.25,27.95,1111122 
SCCF RECON,ioos:station:SCCF:13:1,2011-03-11T11:00:00Z,26.5255,-82.0032,2.259,27.66,1111122 
SCCF RECON,ioos:station:SCCF:13:1,2011-03-11T12:00:00Z,26.5255,-82.0032,2.23,27.52,1111122 
SCCF RECON,ioos:station:SCCF:13:1,2011-03-11T13:00:00Z,26.5255,-82.0032,2.208,27.21,1111122 
SCCF RECON,ioos:station:SCCF:13:1,2011-03-11T14:00:00Z,26.5255,-82.0032,2.17,26.61,1111122 
SCCF RECON,ioos:station:SCCF:13:1,2011-03-11T15:00:00Z,26.5255,-82.0032,2.177,26.19,1111122 
SCCF RECON,ioos:station:SCCF:13:1,2011-03-11T16:00:00Z,26.5255,-82.0032,2.249,26.1,1111122 
SCCF RECON,ioos:station:SCCF:13:1,2011-03-11T17:00:00Z,26.5255,-82.0032,2.28,26.86,1111122 
SCCF RECON,ioos:station:SCCF:13:1,2011-03-11T18:00:00Z,26.5255,-82.0032,2.314,28.26,1111122 
SCCF RECON,ioos:station:SCCF:13:1,2011-03-11T19:00:00Z,26.5255,-82.0032,2.347,29.51,1111122 